{"data":{"norad_id":42709,"epoch":"2026-09-19T00:18:38.600928Z","epoch_age_seconds":142815,"freshness":"FRESH","line1":"1 42709U 17026A   26262.01294677  .00000056  00000+0  00000+0 0  9991","line2":"2 42709   0.0426 342.8054 0000480 156.2843  94.3400  1.00269368  8376","mean_motion":1.00269368,"eccentricity":4.8e-5,"inclination_deg":0.0426,"raan_deg":342.8054,"arg_perigee_deg":156.2843,"mean_anomaly_deg":94.34,"bstar":0,"rev_number":837,"period_min":1436.1315212439,"perigee_km":35785.248607983,"apogee_km":35789.296487299,"semimajor_km":42165.409547641,"source":"CELESTRAK","updated_at":"2026-09-20T09:00:46.836860Z"}}